Location: Unspecified
(0.0000°N, 0.0000°E)
Time: 19:51:45
(UTC+00:00)

STARLINK-1679 - Visible Passes

Search period start: 09 November 2025 00:00
Search period end: 19 November 2025 00:00
Orbit: 469 x 477 km, 53.1° (Epoch: 08 November)

Date Brightness Start Highest point End Pass type
(mag) Time Alt. Az. Time Alt. Az. Time Alt. Az.
09 Nov 5.6 19:38:31 10° WSW 19:40:56 21° WNW 19:40:56 21° WNW visible
10 Nov 5.1 19:07:40 10° WSW 19:10:50 28° NW 19:12:26 20° NNW visible
11 Nov 4.7 18:36:45 10° SW 18:40:09 36° NW 18:43:32 10° NNE visible
12 Nov 4.2 18:05:46 10° SW 18:09:19 49° WNW 18:12:51 10° NNE visible
15 Nov 3.4 04:48:28 14° NNW 04:51:30 74° NE 04:55:09 10° SE visible
16 Nov 3.9 04:19:08 38° N 04:20:08 52° NE 04:23:43 10° SE visible
17 Nov 5.1 03:49:37 31° E 03:49:37 31° E 03:52:01 10° SE visible
18 Nov 6.7 03:19:51 11° ESE 03:19:51 11° ESE 03:20:06 10° ESE visible
18 Nov 5.6 04:53:52 10° WSW 04:54:30 11° SW 04:55:30 10° SW visible
